Content
SEND FEEDBACK

Daily
Averages
Monthly
Summary
United States of America

BALTIMORE, MARYLAND


Home > North America > United States > Maryland
Elevation: 196 feet     Latitude: 39 11N     Longitude: 076 40W

WEATHER
 
SELECT A DAY
Number of Records: 200,468;   Date Range: 1/1/95 - 11/24/14
 
SHARE

PRINT THIS DATA

[ ← Previous Day ]
WEATHER ALMANAC - FEBRUARY 13, 2013
[ Next Day → ]
[ °C ]   °F
Weather ElementAverageHighLow
Temperature36.1 °F43 °F (12:54 pm)32 °F (5:54 am)
Dewpoint30.3 °F35.1 °F (5:54 pm)25 °F (2:54 am)
Humidity80.9 %100 % (7:42 pm)57 % (2:58 pm)
Barometer29.76 in29.96 in (1:54 am)29.66 in (4:38 pm)
Wind Speed4.5 mph9.2 mph (1:54 pm)
Weather ElementAverage
Visibility5.7 mi
Wind DirectionESE (101.6 °)

Weather ElementTotal
Precipitation0.61 in
Heating Degree Days27.5 (Base 65)
Averaged from 38 records on February 13, 2013
WEATHER CONDITIONS BREAKOUT
WIND DIRECTION BREAKOUT
WEATHER BY HOUR - FEBRUARY 13, 2013
[ °C ]   °F
Local TimeTemperatureDewpointHumidityBarometerVisibilityWind DirectionWind SpeedGust SpeedPrecipitationEventsConditions
1:54 AM34.0 °F26.1 °F73 %29.96 in10.0 miCalmPartly Cloudy
2:54 AM34.0 °F25.0 °F70 %29.92 in10.0 miENE (60°)4.6 mphPartly Cloudy
3:54 AM34.0 °F25.0 °F70 %29.90 in10.0 miNE (40°)4.6 mphScattered Clouds
4:54 AM33.1 °F25.0 °F72 %29.90 in10.0 miENE (60°)4.6 mphScattered Clouds
5:54 AM32.0 °F25.0 °F75 %29.91 in10.0 miNE (50°)3.5 mphScattered Clouds
6:54 AM33.1 °F26.1 °F75 %29.89 in9.0 miNE (50°)4.6 mphMostly Cloudy
7:54 AM35.1 °F27.0 °F72 %29.89 in8.0 miENE (70°)5.8 mphMostly Cloudy
8:54 AM36.0 °F27.0 °F70 %29.89 in9.0 miEast (80°)6.9 mphMostly Cloudy
9:54 AM37.0 °F27.0 °F67 %29.87 in10.0 miENE (70°)8.1 mphMostly Cloudy
10:54 AM37.0 °F27.0 °F67 %29.85 in10.0 miENE (60°)8.1 mphOvercast
11:54 AM39.9 °F28.0 °F63 %29.81 in10.0 miENE (60°)6.9 mphMostly Cloudy
12:54 PM43.0 °F28.9 °F58 %29.76 in10.0 miENE (70°)8.1 mphMostly Cloudy
1:54 PM43.0 °F28.9 °F58 %29.72 in10.0 miEast (90°)9.2 mphMostly Cloudy
2:54 PM43.0 °F28.9 °F58 %29.70 in10.0 miNE (40°)5.8 mphOvercast
2:58 PM42.8 °F28.4 °F57 %29.70 in10.0 miNE (40°)4.6 mphOvercast
3:05 PM42.8 °F28.4 °F57 %29.69 in10.0 miNE (40°)5.8 mph0.00 inRainLight Rain Showers
3:54 PM41.0 °F30.0 °F65 %29.67 in4.0 miENE (60°)5.8 mph0.00 inRainLight Rain
4:07 PM41.0 °F32.0 °F70 %29.67 in5.0 miNNE (30°)5.8 mph0.00 inRainLight Rain
4:38 PM39.2 °F33.8 °F81 %29.66 in5.0 miNorth (10°)6.9 mph0.00 inRainLight Rain
4:54 PM39.9 °F33.1 °F77 %29.66 in7.0 miNNE (20°)6.9 mph0.00 inRainLight Rain
5:54 PM37.9 °F35.1 °F89 %29.68 in3.0 miNorth (10°)5.8 mph0.04 inRainLight Rain
6:54 PM36.0 °F34.0 °F93 %29.69 in4.0 miNNE (30°)6.9 mph0.06 inRainLight Rain
7:31 PM35.6 °F33.8 °F93 %29.69 in2.5 miNorth (10°)4.6 mph0.03 inSnowLight Snow
7:42 PM33.8 °F33.8 °F100 %29.70 in3.0 miNorth (360°)3.5 mph0.04 inRain-SnowLight Snow
7:54 PM34.0 °F33.1 °F96 %29.70 in2.5 miCalm0.05 inRain-SnowLight Snow
8:04 PM33.8 °F32.0 °F93 %29.70 in1.0 miNorth (350°)3.5 mph0.02 inRain-SnowLight Snow
8:42 PM33.8 °F32.0 °F93 %29.70 in1.0 miNW (310°)3.5 mph0.06 inRain-SnowLight Snow
8:54 PM32.0 °F32.0 °F100 %29.70 in1.0 miCalm0.08 inSnowLight Snow
9:21 PM33.8 °F32.0 °F93 %29.70 in1.8 miNNW (330°)3.5 mph0.02 inSnowLight Snow
9:54 PM32.0 °F32.0 °F100 %29.73 in1.2 miWNW (290°)4.6 mph0.03 inSnowLight Snow
10:18 PM33.8 °F32.0 °F93 %29.73 in1.0 miWNW (300°)5.8 mph0.02 inSnowLight Snow
10:33 PM33.8 °F32.0 °F93 %29.73 in1.5 miWNW (300°)3.5 mph0.04 inRain-SnowLight Snow
10:42 PM33.8 °F33.8 °F100 %29.73 in2.0 miCalm0.04 inRain-SnowLight Snow
10:54 PM33.1 °F32.0 °F96 %29.74 in2.5 miCalm0.04 inRain-SnowLight Rain
11:25 PM33.8 °F32.0 °F93 %29.75 in3.0 miWest (280°)4.6 mph0.01 inOvercast
11:36 PM33.8 °F33.8 °F100 %29.75 in3.0 miCalm0.01 inOvercast
11:45 PM33.8 °F33.8 °F100 %29.75 in3.0 miWNW (290°)3.5 mph0.01 inOvercast
11:54 PM34.0 °F33.1 °F96 %29.76 in3.0 miCalm0.01 inOvercast
Hourly data recorded from KBWI, located miles away from Baltimore, Maryland







STORIES FROM OUR PARTNERS